Weather History for KCCY - May, 2013

Change the Weather History Date:

Saturday, May 11, 2013

  Actual Average Record
Temperature  
Mean Temperature 46 °F -  
Max Temperature 53 °F 70 °F 83 °F (1958)
Min Temperature 39 °F 48 °F 32 °F (1966)
Degree Days  
Heating Degree Days 19    
Moisture  
Dew Point 31 °F    
Average Humidity 55    
Maximum Humidity 87    
Minimum Humidity 30    
Precipitation  
Precipitation 0.00 in - - ()
Sea Level Pressure  
Sea Level Pressure 30.05 in    
Wind  
Wind Speed 18 mph (NW)    
Max Wind Speed 31 mph    
Max Gust Speed 44 mph    
Visibility 10 miles    
Events      
Averages and records for this station are not official NWS values.
T = Trace of Precipitation, MM = Missing Value Source: NWS Daily Summary

Daily Weather History Graph

Daily Weather History Graph

Search for Another Location

Airport or City:

Trip Planner

Search our weather history database for the weather conditions in past years. The results will help you decide how hot, cold, wet, or windy it might be!

Date:

Astronomy

May. 11, 2013 Rise Set
Actual Time 5:51 AM CDT 8:23 PM CDT
Civil Twilight 5:18 AM CDT 8:55 PM CDT
Nautical Twilight 4:38 AM CDT 9:36 PM CDT
Astronomical Twilight 3:53 AM CDT 10:21 PM CDT
Moon 6:58 AM CDT (5/11) 10:04 PM CDT (5/11)
Length of Visible Light 15h 36m
Length of Day
14h 32m
Waxing Crescent, 3% of the Moon is Illuminated
May 11
Waxing Crescent
May 17
First Quarter
May 24
Full
May 31
Last Quarter
Jun 8
New

Hourly Weather History & Observations

Time (CDT) Temp. Windchill Dew Point Humidity Pressure Visibility Wind Dir Wind Speed Gust Speed Precip Events Conditions
12:15 AM 50.0 °F - 44.6 °F 82% 29.95 in 10.0 mi SSW 8.1 mph - N/A   Clear
12:35 AM 50.0 °F - 44.6 °F 82% 29.95 in 10.0 mi SSW 9.2 mph - N/A   Clear
12:55 AM 50.0 °F - 44.6 °F 82% 29.94 in 10.0 mi SSW 6.9 mph - N/A   Partly Cloudy
1:15 AM 50.0 °F - 46.4 °F 87% 29.93 in 10.0 mi SSW 5.8 mph - N/A   Mostly Cloudy
1:35 AM 50.0 °F - 46.4 °F 87% 29.93 in 10.0 mi SW 5.8 mph - N/A   Overcast
1:55 AM 51.8 °F - 46.4 °F 82% 29.92 in 10.0 mi SW 4.6 mph - N/A   Overcast
2:15 AM 51.8 °F - 46.4 °F 82% 29.91 in 10.0 mi SW 5.8 mph - N/A   Overcast
2:35 AM 50.0 °F - 46.4 °F 87% 29.91 in 10.0 mi SW 6.9 mph - N/A   Overcast
2:55 AM 51.8 °F - 44.6 °F 76% 29.92 in 10.0 mi West 11.5 mph - N/A   Overcast
3:15 AM 53.6 °F - 42.8 °F 67% 29.92 in 10.0 mi West 13.8 mph 23.0 mph N/A   Overcast
3:35 AM 51.8 °F - 42.8 °F 71% 29.92 in 10.0 mi WNW 20.7 mph 32.2 mph N/A   Scattered Clouds
3:55 AM 51.8 °F - 42.8 °F 71% 29.93 in 10.0 mi NW 24.2 mph - N/A   Partly Cloudy
4:15 AM 50.0 °F - 41.0 °F 71% 29.93 in 10.0 mi NW 25.3 mph 32.2 mph N/A   Clear
4:35 AM 48.2 °F - 39.2 °F 71% 29.94 in 10.0 mi NW 19.6 mph 29.9 mph N/A   Clear
4:55 AM 48.2 °F - 37.4 °F 66% 29.94 in 10.0 mi NNW 24.2 mph 33.4 mph N/A   Clear
5:15 AM 46.4 °F 37.9 °F 37.4 °F 71% 29.95 in 10.0 mi NW 25.3 mph 35.7 mph N/A   Clear
5:35 AM 46.4 °F 38.1 °F 35.6 °F 66% 29.96 in 10.0 mi NNW 24.2 mph 29.9 mph N/A   Clear
5:55 AM 44.6 °F 35.7 °F 35.6 °F 71% 29.98 in 10.0 mi NW 24.2 mph 33.4 mph N/A   Clear
6:15 AM 44.6 °F 36.1 °F 35.6 °F 71% 29.98 in 10.0 mi NNW 21.9 mph 32.2 mph N/A   Clear
6:35 AM 44.6 °F 35.3 °F 35.6 °F 71% 29.99 in 10.0 mi NNW 26.5 mph 35.7 mph N/A   Clear
6:55 AM 44.6 °F 35.3 °F 33.8 °F 66% 30.01 in 10.0 mi NNW 26.5 mph 34.5 mph N/A   Clear
7:15 AM 44.6 °F 36.1 °F 32.0 °F 61% 30.03 in 10.0 mi NNW 21.9 mph 38.0 mph N/A   Clear
7:35 AM 44.6 °F 35.1 °F 30.2 °F 57% 30.03 in 10.0 mi NNW 27.6 mph 34.5 mph N/A   Clear
7:55 AM 44.6 °F 35.9 °F 32.0 °F 61% 30.04 in 10.0 mi NNW 23.0 mph 32.2 mph N/A   Clear
8:15 AM 46.4 °F 37.9 °F 32.0 °F 57% 30.05 in 10.0 mi NNW 25.3 mph 33.4 mph N/A   Clear
8:35 AM 46.4 °F 38.3 °F 32.0 °F 57% 30.05 in 10.0 mi NNW 23.0 mph 34.5 mph N/A   Clear
8:55 AM 46.4 °F 37.9 °F 32.0 °F 57% 30.06 in 10.0 mi NNW 25.3 mph 35.7 mph N/A   Clear
9:15 AM 46.4 °F 37.4 °F 28.4 °F 50% 30.06 in 10.0 mi NNW 28.8 mph 36.8 mph N/A   Clear
9:35 AM 46.4 °F 37.4 °F 30.2 °F 53% 30.07 in 10.0 mi NNW 28.8 mph 35.7 mph N/A   Clear
9:55 AM 48.2 °F - 30.2 °F 50% 30.07 in 10.0 mi NW 26.5 mph 33.4 mph N/A   Clear
10:15 AM 48.2 °F - 30.2 °F 50% 30.08 in 10.0 mi NW 28.8 mph 35.7 mph N/A   Partly Cloudy
10:35 AM 48.2 °F - 30.2 °F 50% 30.08 in 10.0 mi NNW 26.5 mph 36.8 mph N/A   Scattered Clouds
10:55 AM 48.2 °F - 30.2 °F 50% 30.09 in 10.0 mi NW 26.5 mph 36.8 mph N/A   Scattered Clouds
11:15 AM 48.2 °F - 30.2 °F 50% 30.09 in 10.0 mi NW 26.5 mph 40.3 mph N/A   Mostly Cloudy
11:35 AM 48.2 °F - 32.0 °F 54% 30.09 in 10.0 mi NW 31.1 mph - N/A   Mostly Cloudy
11:55 AM 50.0 °F - 32.0 °F 50% 30.09 in 10.0 mi NNW 27.6 mph 35.7 mph N/A   Mostly Cloudy
12:15 PM 50.0 °F - 30.2 °F 47% 30.09 in 10.0 mi NNW 27.6 mph - N/A   Mostly Cloudy
12:35 PM 50.0 °F - 30.2 °F 47% 30.09 in 10.0 mi NW 24.2 mph 35.7 mph N/A   Mostly Cloudy
12:55 PM 50.0 °F - 30.2 °F 47% 30.09 in 10.0 mi NW 26.5 mph 32.2 mph N/A   Mostly Cloudy
1:15 PM 50.0 °F - 30.2 °F 47% 30.09 in 10.0 mi NW 27.6 mph 35.7 mph N/A   Mostly Cloudy
1:35 PM 50.0 °F - 28.4 °F 43% 30.09 in 10.0 mi NW 25.3 mph 38.0 mph N/A   Scattered Clouds
1:55 PM 50.0 °F - 32.0 °F 50% 30.09 in 10.0 mi NNW 23.0 mph 32.2 mph N/A   Mostly Cloudy
2:15 PM 51.8 °F - 30.2 °F 44% 30.09 in 10.0 mi NNW 28.8 mph 39.1 mph N/A   Scattered Clouds
2:35 PM 50.0 °F - 26.6 °F 40% 30.10 in 10.0 mi NW 26.5 mph 40.3 mph N/A   Scattered Clouds
2:55 PM 51.8 °F - 24.8 °F 35% 30.10 in 10.0 mi NW 27.6 mph 40.3 mph N/A   Scattered Clouds
3:15 PM 51.8 °F - 23.0 °F 33% 30.10 in 10.0 mi NW 29.9 mph 36.8 mph N/A   Partly Cloudy
3:35 PM 51.8 °F - 23.0 °F 33% 30.10 in 10.0 mi NW 27.6 mph 40.3 mph N/A   Scattered Clouds
3:55 PM 51.8 °F - 24.8 °F 35% 30.09 in 10.0 mi NW 29.9 mph 40.3 mph N/A   Mostly Cloudy
4:15 PM 51.8 °F - 23.0 °F 33% 30.09 in 10.0 mi NNW 24.2 mph 43.7 mph N/A   Scattered Clouds
4:35 PM 51.8 °F - 23.0 °F 33% 30.09 in 10.0 mi NW 25.3 mph 36.8 mph N/A   Partly Cloudy
4:55 PM 51.8 °F - 21.2 °F 30% 30.09 in 10.0 mi NNW 20.7 mph 34.5 mph N/A   Partly Cloudy
5:15 PM 51.8 °F - 21.2 °F 30% 30.10 in 10.0 mi NW 24.2 mph 36.8 mph N/A   Clear
5:35 PM 51.8 °F - 21.2 °F 30% 30.10 in 10.0 mi NNW 26.5 mph 35.7 mph N/A   Clear
5:55 PM 51.8 °F - 21.2 °F 30% 30.10 in 10.0 mi NNW 27.6 mph 34.5 mph N/A   Clear
6:15 PM 51.8 °F - 21.2 °F 30% 30.11 in 10.0 mi NNW 24.2 mph 36.8 mph N/A   Clear
6:35 PM 50.0 °F - 23.0 °F 35% 30.11 in 10.0 mi NNW 27.6 mph - N/A   Clear
6:55 PM 50.0 °F - 23.0 °F 35% 30.11 in 10.0 mi NW 28.8 mph 34.5 mph N/A   Clear
7:15 PM 50.0 °F - 23.0 °F 35% 30.11 in 10.0 mi NNW 24.2 mph 33.4 mph N/A   Clear
7:35 PM 50.0 °F - 23.0 °F 35% 30.12 in 10.0 mi NNW 23.0 mph - N/A   Clear
7:55 PM 48.2 °F - 24.8 °F 40% 30.12 in 10.0 mi NNW 17.3 mph 25.3 mph N/A   Partly Cloudy
8:15 PM 48.2 °F - 23.0 °F 37% 30.12 in 10.0 mi NNW 18.4 mph 24.2 mph N/A   Clear
8:35 PM 46.4 °F 40.7 °F 24.8 °F 43% 30.13 in 10.0 mi NNW 12.7 mph 19.6 mph N/A   Clear
8:55 PM 46.4 °F 41.1 °F 24.8 °F 43% 30.13 in 10.0 mi NNW 11.5 mph - N/A   Clear
9:15 PM 44.6 °F 39.7 °F 26.6 °F 49% 30.14 in 10.0 mi NNW 9.2 mph - N/A   Clear
9:35 PM 42.8 °F 37.5 °F 26.6 °F 53% 30.14 in 10.0 mi NNW 9.2 mph - N/A   Clear
9:55 PM 42.8 °F 37.5 °F 28.4 °F 57% 30.15 in 10.0 mi NW 9.2 mph - N/A   Clear
10:15 PM 41.0 °F 35.2 °F 28.4 °F 61% 30.15 in 10.0 mi NW 9.2 mph - N/A   Clear
10:35 PM 41.0 °F 36.4 °F 28.4 °F 61% 30.16 in 10.0 mi WNW 6.9 mph - N/A   Clear
10:55 PM 39.2 °F 33.6 °F 28.4 °F 65% 30.15 in 10.0 mi NW 8.1 mph - N/A   Clear
11:15 PM 41.0 °F 35.2 °F 26.6 °F 57% 30.15 in 10.0 mi NW 9.2 mph - N/A   Clear
11:35 PM 39.2 °F 33.0 °F 28.4 °F 65% 30.16 in 10.0 mi NW 9.2 mph - N/A   Clear
11:55 PM 41.0 °F 34.3 °F 28.4 °F 61% 30.16 in 10.0 mi NW 11.5 mph - N/A   Clear